This demonstration page uses our WeatherBlox Daily Observations layout. Learn more.

Left ArrowRight Arrow

Hourly Observations for November 3, 2021

Temp ( °F °C ) Dew Point ( °F °C ) Humidity (%) Winds ( mph kmh ) Pressure ( in mb ) Visibility ( mi km ) Precip ( " mm )
12:53 am 00:53 Clear 47 8.3 41 5 80 80 NW 3 6 30.22 1023 10 16 0.00 0.00
1:53 am 01:53 Clear 46 7.8 41 5 83 83 VRB 5 7 30.23 1024 10 16 0.00 0.00
2:53 am 02:53 Clear 44 6.7 40 4.4 85 85 Calm 30.22 1023 10 16 0.00 0.00
3:53 am 03:53 Clear 43 6.1 39 3.9 86 86 N 3 6 30.22 1023 10 16 0.00 0.00
4:53 am 04:53 Clear 43 6.1 39 3.9 86 86 Calm 30.22 1024 10 16 0.00 0.00
5:53 am 05:53 Clear 42 5.6 39 3.9 89 89 Calm 30.23 1024 10 16 0.00 0.00
6:53 am 06:53 Clear 42 5.6 40 4.4 92 92 Calm 30.24 1024 10 16 0.00 0.00
7:53 am 07:53 Clear 43 6.1 40 4.4 89 89 Calm 30.24 1024 10 16 0.00 0.00
8:53 am 08:53 Sunny 44 6.7 41 5 89 89 Calm 30.26 1025 10 16 0.00 0.00
9:53 am 09:53 Mostly Sunny 49 9.4 44 6.7 83 83 Calm 30.27 1025 10 16 0.00 0.00
10:17 am 10:17 Mostly Sunny 51 10.6 43 6.1 74 74 ENE 9 15 30.29 1026 10 16 0.00 0.00
10:53 am 10:53 Sunny 54 12.2 43 6.1 67 67 E 7 11 30.27 1025 10 16 0.00 0.00
11:53 am 11:53 Partly Cloudy 56 13.3 42 5.6 60 60 E 10 17 30.28 1026 10 16 0.00 0.00
12:53 pm 12:53 Sunny 58 14.4 42 5.6 56 56 E 8 13 30.26 1025 10 16 0.00 0.00
1:53 pm 13:53 Mostly Cloudy 58 14.4 43 6.1 58 58 E 9 15 30.22 1023 10 16 0.00 0.00
2:53 pm 14:53 Cloudy 57 13.9 44 6.7 62 62 NNE 7 11 30.21 1023 10 16 0.00 0.00
3:53 pm 15:53 Cloudy 57 13.9 43 6.1 60 60 ENE 8 13 30.19 1022 10 16 0.00 0.00
4:53 pm 16:53 Partly Cloudy 57 13.9 42 5.6 58 58 E 7 11 30.19 1022 10 16 0.00 0.00
5:53 pm 17:53 Cloudy 56 13.3 42 5.6 60 60 E 7 11 30.19 1023 10 16 0.00 0.00
6:53 pm 18:53 Cloudy with Light Rain 53 11.7 44 6.7 72 72 ENE 6 9 30.21 1023 10 16 0.01 0.25
7:53 pm 19:53 Cloudy 52 11.1 46 7.8 80 80 NE 3 6 30.22 1023 10 16 0.00 0.00
8:53 pm 20:53 Cloudy 51 10.6 45 7.2 80 80 NNE 5 7 30.23 1024 10 16 0.00 0.00
9:53 pm 21:53 Cloudy 51 10.6 44 6.7 77 77 NE 8 13 30.23 1024 10 16 0.00 0.00
10:53 pm 22:53 Cloudy 50 10 43 6.1 77 77 NE 5 7 30.25 1024 10 16 0.00 0.00
11:53 pm 23:53 Cloudy 50 10 42 5.6 74 74 NE 9 15 30.25 1024 10 16 0.00 0.00

Powered by AerisWeather